Location: Leiter
(44.7178°N, 106.2687°W)
Time: 17:33:04
(UTC+00:00)

ESTCUBE 1 - Pass Details

Date: 01 July 2022
Orbit: 645 x 657 km, 97.9° (Epoch: 19 August)

Event Time Altitude Azimuth Distance (km) Brightness Sun altitude
Exits shadow 05:16:31 32° 174° (S) 1,101 ? -17.5°
Maximum altitude 05:18:32 80° 257° (WSW) 663 ? -17.6°
Drops below altitude 10° 05:23:02 10° 345° (NNW) 2,059 ? -18.0°
Sets 05:25:16 0° 346° (NNW) 2,976 ? -18.2°
